Weather History for K14Y - July, 2013

Change the Weather History Date:

Thursday, July 18, 2013

  Actual Average (KAXN) Record (KAXN)
Temperature  
Mean Temperature 79 °F -  
Max Temperature 89 °F 82 °F 93 °F (1957)
Min Temperature 69 °F 62 °F 48 °F (2000)
Cooling Degree Days 14    
Growing Degree Days 29 (Base 50)    
Moisture  
Dew Point 69 °F    
Average Humidity 69    
Maximum Humidity 94    
Minimum Humidity 49    
Precipitation  
Precipitation 0.00 in - - ()
Sea Level Pressure  
Sea Level Pressure 29.91 in    
Wind  
Wind Speed 9 mph (South)    
Max Wind Speed 24 mph    
Max Gust Speed 31 mph    
Visibility 10 miles    
Events      
Averages and records for this station are not official NWS values.
T = Trace of Precipitation, MM = Missing Value Source: NWS Daily Summary

Daily Weather History Graph

Daily Weather History Graph

Search for Another Location

Airport or City:

Trip Planner

Search our weather history database for the weather conditions in past years. The results will help you decide how hot, cold, wet, or windy it might be!

Date:

Astronomy

Jul. 18, 2013 Rise Set
Actual Time 5:47 AM CDT 9:03 PM CDT
Civil Twilight 5:10 AM CDT 9:40 PM CDT
Nautical Twilight 4:23 AM CDT 10:27 PM CDT
Astronomical Twilight 3:23 AM CDT 11:26 PM CDT
Moon 5:00 PM CDT (7/18) 1:41 AM CDT (7/18)
Length of Visible Light 16h 29m
Length of Day
15h 16m
Waxing Gibbous, 77% of the Moon is Illuminated
Jul 18
Waxing Gibbous
Jul 22
Full
Jul 29
Last Quarter
Aug 6
New
Aug 14
First Quarter

Hourly Weather History & Observations

Time (CDT) Temp. Heat Index Dew Point Humidity Pressure Visibility Wind Dir Wind Speed Gust Speed Precip Events Conditions
12:16 AM 71.6 °F - 69.8 °F 94% 30.11 in 10.0 mi Calm Calm - N/A   Clear
12:36 AM 71.6 °F - 69.8 °F 94% 30.10 in 10.0 mi Calm Calm - N/A   Clear
12:57 AM 71.6 °F - 69.8 °F 94% 30.10 in 10.0 mi SE 3.5 mph - N/A   Clear
1:16 AM 69.8 °F - 68.0 °F 94% 30.09 in 10.0 mi SSE 3.5 mph - N/A   Clear
1:36 AM 69.8 °F - 68.0 °F 94% 30.09 in 10.0 mi SSE 3.5 mph - N/A   Clear
1:56 AM 71.6 °F - 69.8 °F 94% 30.08 in 10.0 mi South 5.8 mph - N/A   Clear
2:17 AM 71.6 °F - 69.8 °F 94% 30.08 in 10.0 mi South 4.6 mph - N/A   Clear
2:37 AM 71.6 °F - 69.8 °F 94% 30.08 in 10.0 mi South 5.8 mph - N/A   Clear
2:56 AM 73.4 °F - 68.0 °F 83% 30.07 in 10.0 mi South 6.9 mph - N/A   Clear
3:16 AM 71.6 °F - 68.0 °F 88% 30.07 in 10.0 mi South 5.8 mph - N/A   Clear
3:37 AM 71.6 °F - 68.0 °F 88% 30.07 in 10.0 mi South 6.9 mph - N/A   Clear
3:57 AM 71.6 °F - 68.0 °F 88% 30.06 in 10.0 mi South 6.9 mph - N/A   Scattered Clouds
4:17 AM 71.6 °F - 68.0 °F 88% 30.05 in 10.0 mi South 6.9 mph - N/A   Clear
4:36 AM 71.6 °F - 68.0 °F 88% 30.04 in 10.0 mi South 6.9 mph - N/A   Scattered Clouds
4:57 AM 71.6 °F - 68.0 °F 88% 30.04 in 10.0 mi South 6.9 mph - N/A   Scattered Clouds
5:17 AM 71.6 °F - 68.0 °F 88% 30.03 in 10.0 mi South 5.8 mph - N/A   Scattered Clouds
5:37 AM 71.6 °F - 68.0 °F 88% 30.03 in 10.0 mi South 6.9 mph - N/A   Mostly Cloudy
5:56 AM 71.6 °F - 66.2 °F 83% 30.02 in 10.0 mi South 8.1 mph - N/A   Mostly Cloudy
6:16 AM 71.6 °F - 66.2 °F 83% 30.02 in 10.0 mi South 9.2 mph - N/A   Overcast
6:37 AM 73.4 °F - 66.2 °F 78% 30.02 in 10.0 mi South 8.1 mph - N/A   Overcast
6:57 AM 73.4 °F - 68.0 °F 83% 30.01 in 10.0 mi South 6.9 mph - N/A   Overcast
7:16 AM 73.4 °F - 68.0 °F 83% 30.00 in 10.0 mi South 8.1 mph - N/A   Overcast
7:36 AM 73.4 °F - 68.0 °F 83% 30.00 in 10.0 mi South 10.4 mph - N/A   Scattered Clouds
7:56 AM 77.0 °F - 68.0 °F 74% 29.98 in 10.0 mi South 10.4 mph 16.1 mph N/A   Mostly Cloudy
8:17 AM 77.0 °F - 68.0 °F 74% 29.98 in 10.0 mi South 9.2 mph 16.1 mph N/A   Mostly Cloudy
8:36 AM 77.0 °F - 68.0 °F 74% 29.98 in 10.0 mi South 11.5 mph 18.4 mph N/A   Mostly Cloudy
8:56 AM 78.8 °F - 68.0 °F 69% 29.97 in 10.0 mi South 11.5 mph 18.4 mph N/A   Scattered Clouds
9:16 AM 78.8 °F - 68.0 °F 69% 29.96 in 10.0 mi SSW 10.4 mph 19.6 mph N/A   Clear
9:37 AM 80.6 °F 83.2 °F 68.0 °F 65% 29.96 in 10.0 mi South 13.8 mph - N/A   Clear
9:57 AM 82.4 °F 85.4 °F 68.0 °F 62% 29.95 in 10.0 mi South 13.8 mph 18.4 mph N/A   Clear
10:17 AM 82.4 °F 85.4 °F 68.0 °F 62% 29.94 in 10.0 mi South 13.8 mph 19.6 mph N/A   Clear
10:36 AM 84.2 °F 87.3 °F 68.0 °F 58% 29.94 in 10.0 mi SSW 16.1 mph 21.9 mph N/A   Clear
10:56 AM 86.0 °F 89.4 °F 68.0 °F 55% 29.93 in 10.0 mi SSW 16.1 mph 20.7 mph N/A   Clear
11:17 AM 86.0 °F 89.4 °F 68.0 °F 55% 29.92 in 10.0 mi SSW 18.4 mph 23.0 mph N/A   Clear
11:36 AM 87.8 °F 91.4 °F 68.0 °F 52% 29.91 in 10.0 mi SSW 16.1 mph 27.6 mph N/A   Clear
11:56 AM 87.8 °F 91.4 °F 68.0 °F 52% 29.91 in 10.0 mi South 20.7 mph 31.1 mph N/A   Clear
12:16 PM 87.8 °F 91.4 °F 68.0 °F 52% 29.91 in 10.0 mi SSW 17.3 mph 24.2 mph N/A   Clear
12:37 PM 89.6 °F 93.4 °F 68.0 °F 49% 29.90 in 10.0 mi South 19.6 mph 27.6 mph N/A   Clear
12:56 PM 89.6 °F 93.4 °F 68.0 °F 49% 29.90 in 10.0 mi South 18.4 mph - N/A   Clear
1:16 PM 89.6 °F 93.4 °F 68.0 °F 49% 29.90 in 10.0 mi South 18.4 mph 27.6 mph N/A   Clear
1:37 PM 89.6 °F 93.4 °F 68.0 °F 49% 29.89 in 10.0 mi SSW 18.4 mph 29.9 mph N/A   Clear
1:57 PM 89.6 °F 93.4 °F 68.0 °F 49% 29.88 in 10.0 mi SSW 19.6 mph 29.9 mph N/A   Clear
2:17 PM 89.6 °F 93.4 °F 68.0 °F 49% 29.87 in 10.0 mi South 18.4 mph 31.1 mph N/A   Clear
2:37 PM 89.6 °F 93.4 °F 68.0 °F 49% 29.86 in 10.0 mi South 23.0 mph 29.9 mph N/A   Clear
2:57 PM 89.6 °F 93.4 °F 68.0 °F 49% 29.85 in 10.0 mi SSW 16.1 mph 26.5 mph N/A   Clear
3:16 PM 89.6 °F 93.4 °F 68.0 °F 49% 29.85 in 10.0 mi SSW 18.4 mph 28.8 mph N/A   Clear
3:36 PM 89.6 °F 93.4 °F 68.0 °F 49% 29.84 in 10.0 mi South 19.6 mph 28.8 mph N/A   Clear
3:57 PM 89.6 °F 93.4 °F 68.0 °F 49% 29.84 in 10.0 mi South 24.2 mph 29.9 mph N/A   Clear
4:17 PM 89.6 °F 93.4 °F 68.0 °F 49% 29.83 in 10.0 mi South 21.9 mph 28.8 mph N/A   Clear
4:37 PM 89.6 °F 93.4 °F 68.0 °F 49% 29.83 in 10.0 mi South 17.3 mph 27.6 mph N/A   Clear
4:57 PM 89.6 °F 93.4 °F 68.0 °F 49% 29.82 in 10.0 mi SSW 16.1 mph 27.6 mph N/A   Clear
5:16 PM 89.6 °F 93.4 °F 68.0 °F 49% 29.81 in 10.0 mi South 20.7 mph 27.6 mph N/A   Clear
5:37 PM 89.6 °F 94.7 °F 69.8 °F 52% 29.81 in 10.0 mi SSW 19.6 mph 26.5 mph N/A   Clear
5:57 PM 87.8 °F 91.4 °F 68.0 °F 52% 29.81 in 10.0 mi South 19.6 mph 25.3 mph N/A   Clear
6:17 PM 86.0 °F 89.4 °F 68.0 °F 55% 29.80 in 10.0 mi SSW 12.7 mph 19.6 mph N/A   Clear
6:36 PM 86.0 °F 90.4 °F 69.8 °F 58% 29.80 in 10.0 mi SSW 13.8 mph 18.4 mph N/A   Clear
6:56 PM 86.0 °F 90.4 °F 69.8 °F 58% 29.79 in 10.0 mi SSW 15.0 mph 18.4 mph N/A   Clear
7:17 PM 86.0 °F 90.4 °F 69.8 °F 58% 29.79 in 10.0 mi SSW 10.4 mph - N/A   Clear
7:37 PM 86.0 °F 90.4 °F 69.8 °F 58% 29.78 in 10.0 mi SSW 12.7 mph 16.1 mph N/A   Clear
7:56 PM 84.2 °F 88.4 °F 69.8 °F 62% 29.77 in 10.0 mi South 13.8 mph 17.3 mph N/A   Clear
8:16 PM 84.2 °F 88.4 °F 69.8 °F 62% 29.77 in 10.0 mi South 10.4 mph - N/A   Clear
8:36 PM 82.4 °F 86.3 °F 69.8 °F 66% 29.76 in 10.0 mi South 9.2 mph - N/A   Clear
8:57 PM 82.4 °F 86.3 °F 69.8 °F 66% 29.76 in 10.0 mi South 8.1 mph - N/A   Clear
9:17 PM 80.6 °F 84.6 °F 71.6 °F 74% 29.75 in 10.0 mi South 9.2 mph - N/A   Clear
9:36 PM 80.6 °F 83.9 °F 69.8 °F 70% 29.75 in 10.0 mi South 10.4 mph - N/A   Clear
9:56 PM 80.6 °F 83.9 °F 69.8 °F 70% 29.76 in 10.0 mi South 9.2 mph - N/A   Clear
10:17 PM 80.6 °F 83.9 °F 69.8 °F 70% 29.76 in 10.0 mi South 9.2 mph - N/A   Clear
10:37 PM 78.8 °F - 69.8 °F 74% 29.75 in 10.0 mi SSW 10.4 mph - N/A   Clear
10:57 PM 78.8 °F - 69.8 °F 74% 29.75 in 10.0 mi SSW 8.1 mph - N/A   Clear
11:17 PM 78.8 °F - 69.8 °F 74% 29.76 in 10.0 mi SSW 8.1 mph - N/A   Scattered Clouds
11:37 PM 78.8 °F - 69.8 °F 74% 29.75 in 10.0 mi SSW 9.2 mph - N/A   Clear
11:57 PM 78.8 °F - 69.8 °F 74% 29.76 in 10.0 mi SW 8.1 mph - N/A   Scattered Clouds